Notices

What's New in latest Release from April 7th, 2021:

- Updated Glossary, including Speed of Maximum Gust, and Total Hourly Precipitation

- Updated national and regional climate services offices contacts and prices information

- Addition of station inventory lists for 1981-2010, 1971-2000, and 1961-1990 Normals.

If you haven't already, please take our survey and provide feedback about our website: https://eccc.sondage-survey.ca/f/LanguageSelection.aspx?s=442ca660-fcf1-47c0-95a9-59707d6fd709

Hourly Data Report for July 01, 2020

TRENTON A
ONTARIO
Current Station Operator: DND

44°07'00.000" N
77°32'00.000" W
86.30 m
6158875
71621
YTR

Download Data

Hourly Data (July 2020)
Hourly Data Report for July 1, 2020
TIME
LST
Temp Definition
°C
Dew Point Definition
°C
Rel Hum Definition
%
Precip. Amount Definition
mm

Wind Dir Definition
10's deg

Wind Spd Definition
km/h
Visibility Definition
km
Stn Press Definition
kPa
Hmdx Definition


Wind Chill Definition


Weather Definition


00:00 17.9 17.2 96   35 4 24.1 100.43     Mainly Clear
01:00 18.2 17.3 94   36 4 24.1 100.42     Clear
02:00 17.0 16.4 96   7 4 24.1 100.39     Clear
03:00 16.3 15.9 97   34 4 24.1 100.38     Clear
04:00 16.8 16.5 98     0 24.1 100.41     Clear
05:00 16.8 16.6 99   32 4 24.1 100.44     Clear
06:00 18.8 17.6 93   35 4 24.1 100.49     Clear
07:00 21.0 18.0 83     0 24.1 100.51 27   Mainly Clear
08:00 23.3 18.0 72   1 8 24.1 100.51 29   Mainly Clear
09:00 24.5 17.6 65   4 11 24.1 100.49 30   Mainly Clear
10:00 26.0 17.7 60   36 9 24.1 100.44 32   Mainly Clear
11:00 26.3 17.6 59     0 24.1 100.39 32   Mainly Clear
12:00 27.4 17.9 56   22 5 24.1 100.35 33   Mostly Cloudy
13:00 24.9 18.2 66   21 18 24.1 100.30 31   Mostly Cloudy
14:00 24.4 18.8 71   21 17 24.1 100.28 31   Mostly Cloudy
15:00 25.8 19.0 66   20 15 24.1 100.24 33   Mainly Clear
16:00 25.9 17.7 61   22 17 24.1 100.21 32   Mainly Clear
17:00 25.7 16.9 58   21 17 24.1 100.22 31   Mainly Clear
18:00 24.9 17.4 63   21 15 24.1 100.21 30   Mainly Clear
19:00 24.8 17.2 63   23 11 24.1 100.19 30   Clear
20:00 24.1 15.8 60   24 8 24.1 100.20 29   Clear
21:00                      
22:00                      
23:00                      

Notes on Data Quality.

Legend

  • E = Estimated
  • M = Missing
  • NA = Not Available*
  • [empty] = Indicates an unobserved value
Date modified: